Location: Newark
(43.0000°N, 1.6781°W)
Time: 07:47:21
(UTC+00:00)

CAS-4B - Visible Passes

Search period start: 07 December 2022 00:00
Search period end: 17 December 2022 00:00
Orbit: 518 x 534 km, 43.0° (Epoch: 06 December)

Date Brightness Start Highest point End Pass type
(mag) Time Alt. Az. Time Alt. Az. Time Alt. Az.
07 Dec ? 04:38:30 23° SE 04:38:30 23° SE 04:41:11 10° E visible
07 Dec ? 06:13:40 12° WSW 06:17:25 69° SSE 06:21:29 10° E visible
08 Dec ? 04:25:45 20° ESE 04:25:45 20° ESE 04:27:28 10° E visible
08 Dec ? 06:00:53 20° WSW 06:03:35 75° SSE 06:07:39 10° E visible
09 Dec ? 04:12:51 15° E 04:12:51 15° E 04:13:42 10° E visible
09 Dec ? 05:47:59 33° WSW 05:49:43 80° S 05:53:48 10° E visible
10 Dec ? 03:59:51 10° E 03:59:51 10° E 03:59:54 10° E visible
10 Dec ? 05:34:59 53° WSW 05:35:51 85° S 05:39:56 10° E visible
11 Dec ? 05:21:54 85° WSW 05:22:00 88° S 05:26:05 10° E visible
12 Dec ? 05:08:45 63° E 05:08:45 63° E 05:12:12 10° E visible
12 Dec ? 06:44:00 10° W 06:48:02 71° SSW 06:52:06 10° ESE visible
13 Dec ? 04:55:35 41° E 04:55:35 41° E 04:58:19 10° E visible
13 Dec ? 06:30:42 14° W 06:34:09 65° SSW 06:38:11 10° ESE visible
14 Dec ? 04:42:23 29° E 04:42:23 29° E 04:44:26 10° E visible
14 Dec ? 06:17:31 19° W 06:20:14 58° SSW 06:24:14 10° ESE visible
15 Dec ? 04:29:11 20° E 04:29:11 20° E 04:30:32 10° E visible
15 Dec ? 06:04:19 26° W 06:06:18 52° SSW 06:10:16 10° ESE visible
16 Dec ? 04:16:00 14° E 04:16:00 14° E 04:16:38 10° E visible
16 Dec ? 05:51:07 34° WSW 05:52:22 46° SSW 05:56:16 10° SE visible
